User: anonymous   Login
Location: Chervonnoye
(48.6000°N, 34.4000°E)
Time: 12:29:48
(UTC+00:00)
Language:

Cosmos 1805 Rocket - Orbit

View from above orbital plane
View from above orbital plane
View from above satellite
View from above satellite

Ground track
Ground track

The orbit data is extracted from the following two-line orbital elements,

1 17192U 86097B   21062.10740135  .00000081  00000-0  69140-5 0  9996
2 17192  82.5039  64.7114 0015906 319.1113 106.9445 14.83634733849565
Epoch (UTC): 03 March 2021 02:34:39
Eccentricity: 0.0015906
inclination: 82.5039°
perigee height: 607 km
apogee height: 629 km
right ascension of ascending node: 64.7114°
argument of perigee: 319.1113°
revolutions per day: 14.83634733
mean anomaly at epoch: 106.9445°
orbit number at epoch: 84956

The dashed part of the orbit path shows where the satellite is in the earth's shadow,  

DLR